Location: Ladrillo (historical)
(32.8195°N, 117.2231°W)
Time: 19:06:19
(UTC+00:00)

Vanguard 1 - Visible Passes

Search period start: 04 March 2021 00:00
Search period end: 14 March 2021 00:00
Orbit: 649 x 3834 km, 34.2° (Epoch: 03 March)

Date Brightness Start Highest point End Pass type
(mag) Time Alt. Az. Time Alt. Az. Time Alt. Az.
04 Mar 11.6 11:21:05 19° E 11:21:05 19° E 11:22:22 10° E visible
04 Mar 9.4 13:33:48 11° W 13:38:00 81° N 13:43:36 10° E visible
05 Mar 10.8 11:40:50 32° ENE 11:40:50 32° ENE 11:43:18 10° E visible
06 Mar 9.7 12:00:35 57° ENE 12:00:35 57° ENE 12:04:17 10° E visible
07 Mar 9.1 12:20:19 69° NW 12:20:43 75° N 12:25:18 10° E visible
08 Mar 9.1 12:40:05 40° WNW 12:41:38 83° N 12:46:20 10° E visible
09 Mar 9.1 12:59:50 23° W 13:02:32 81° SSW 13:07:20 10° ESE visible
10 Mar 11.8 11:06:54 16° E 11:06:54 16° E 11:07:49 10° E visible
10 Mar 9.4 13:19:36 14° W 13:23:22 61° SSW 13:28:14 10° ESE visible
11 Mar 13.4 04:14:12 10° S 04:16:31 12° SSE 04:16:31 12° SSE visible
11 Mar 11.0 11:26:41 28° E 11:26:41 28° E 11:28:45 10° E visible
12 Mar 13.2 04:31:14 10° S 04:36:40 16° S 04:36:40 16° S visible
12 Mar 10.0 11:46:29 49° E 11:46:29 49° E 11:49:41 10° E visible
13 Mar 13.1 04:50:06 10° SSW 04:56:53 21° S 04:56:53 21° S visible
13 Mar 9.1 12:06:18 76° S 12:06:18 76° S 12:10:34 10° ESE visible
